This demonstration page uses our WeatherBlox Daily Observations layout. Learn more.

Left ArrowRight Arrow

34.16533, -84.80231

Hourly Observations for April 30, 2022

Temp ( °F °C ) Dew Point ( °F °C ) Humidity (%) Winds ( mph kmh ) Pressure ( in mb ) Visibility ( mi km ) Precip ( " mm )
12:50 am 00:50 Clear 70 21.1 44 6.7 39 39 SSE 6 9 30.04 1017 10 16 0.00 0.00
1:50 am 01:50 Clear 69 20.6 48 8.9 47 47 VRB 6 9 30.04 1017 10 16 0.00 0.00
2:50 am 02:50 Clear 65 18.3 49 9.4 56 56 VRB 6 9 30.03 1017 10 16 0.00 0.00
3:50 am 03:50 Clear 64 17.8 51 10.6 63 63 SSE 5 7 30.03 1017 10 16 0.00 0.00
4:50 am 04:50 Clear 62 16.7 52 11.1 70 70 SE 3 6 30.04 1017 10 16 0.00 0.00
5:50 am 05:50 Clear 61 16.1 53 11.7 75 75 SSE 5 7 30.06 1018 10 16 0.00 0.00
6:50 am 06:50 Sunny 60 15.6 53 11.7 78 78 ENE 5 7 30.07 1018 10 16 0.00 0.00
7:50 am 07:50 Sunny 61 16.1 54 12.2 78 78 ESE 6 9 30.09 1019 10 16 0.00 0.00
8:50 am 08:50 Sunny 63 17.2 55 12.8 76 76 VRB 3 6 30.09 1019 10 16 0.00 0.00
9:50 am 09:50 Sunny 67 19.4 58 14.4 73 73 S 7 11 30.09 1019 10 16 0.00 0.00
10:50 am 10:50 Sunny 71 21.7 60 15.6 68 68 SSE 6 9 30.09 1019 10 16 0.00 0.00
11:50 am 11:50 Mostly Sunny 75 23.9 62 16.7 64 64 SSE 6 9 30.08 1019 10 16 0.00 0.00
12:50 pm 12:50 Partly Cloudy 76 24.4 60 15.6 58 58 S 8 13 30.06 1018 10 16 0.00 0.00
1:50 pm 13:50 Mostly Cloudy 77 25 60 15.6 56 56 SSE 8 13 30.04 1017 10 16 0.00 0.00
2:50 pm 14:50 Cloudy 78 25.6 60 15.6 54 54 SSE 8 13 30.02 1017 10 16 0.00 0.00
3:50 pm 15:50 Mostly Cloudy 79 26.1 60 15.6 52 52 SE 5 7 30.00 1016 10 16 0.00 0.00
4:50 pm 16:50 Mostly Cloudy 80 26.7 60 15.6 51 51 S 7 11 29.98 1015 10 16 0.00 0.00
5:50 pm 17:50 Mostly Cloudy 79 26.1 60 15.6 52 52 VRB 7 11 29.98 1015 10 16 0.00 0.00
6:50 pm 18:50 Sunny 79 26.1 60 15.6 52 52 S 7 11 29.98 1015 10 16 0.00 0.00
7:50 pm 19:50 Sunny 77 25 60 15.6 56 56 SSE 6 9 29.98 1015 10 16 0.00 0.00
8:50 pm 20:50 Partly Cloudy 75 23.9 60 15.6 60 60 SE 8 13 29.99 1016 10 16 0.00 0.00
9:50 pm 21:50 Partly Cloudy 74 23.3 60 15.6 62 62 SE 6 9 30.00 1016 10 16 0.00 0.00
10:50 pm 22:50 Cloudy 74 23.3 60 15.6 62 62 SSE 8 13 30.02 1017 10 16 0.00 0.00
11:50 pm 23:50 Mostly Cloudy 71 21.7 60 15.6 68 68 SSE 5 7 30.04 1017 10 16 0.00 0.00

Powered by AerisWeather